AirNav   Everest Fuels
 
 1045 users online  

48G Gavagan Field Airport
Yale, Michigan, USA

GOING TO YALE?


FAA INFORMATION EFFECTIVE 22 APRIL 2021

Location

FAA Identifier: 48G
Lat/Long: 43-06-12.4000N 082-53-24.8000W
43-06.206667N 082-53.413333W
43.1034444,-82.8902222
(estimated)
Elevation: 800 ft. / 244 m (estimated)
Variation: 06W (1985)
From city: 4 miles SW of YALE, MI
Time zone: UTC -4 (UTC -5 during Standard Time)
Zip code: 48097

Airport Operations

Airport use: Open to the public
Activation date: 10/1975
Control tower: no
ARTCC: CLEVELAND CENTER
FSS: LANSING FLIGHT SERVICE STATION
NOTAMs facility: LAN (NOTAM-D service available)
Attendance: IREG
CALL FOR RY COND.
Wind indicator: yes
Segmented circle: no

Airport Communications

CTAF: 122.9
WX AWOS-3P at D95 (17 nm W): 134.050 (810-664-5038)
WX AWOS-3 at PHN (20 nm SE): 118.375 (810-364-7787)

Nearby radio navigation aids

VOR radial/distance  VOR name  Freq  Var
FNTr084/38.5FLINT VORTAC116.9006W

Airport Services

Powerplant service: NONE
Bottled oxygen: NONE
Bulk oxygen: NONE

Runway Information

Runway 14/32

Dimensions: 1986 x 95 ft. / 605 x 29 m
Surface: turf, in fair condition
SOFT WHEN WET.
Runway edge markings: 14/32 THLD & RY 14 DSPLCD THLD MKD WITH TIRES.
RUNWAY 14  RUNWAY 32
Latitude: 43-06.335000N43-06.078333N
Longitude: 082-53.551667W082-53.275000W
Traffic pattern: leftleft
Displaced threshold: 690 ft.no
Runway end identifier lights: nono
Obstructions: 75 ft. tree, 138 ft. from runway, 133 ft. left of centerline, 1:1 slope to clear
+50 FT TREES 0 FT DSTC 100 FT L; APCH RATIO 0:1 AT DSPLCD THLD 20:1 BASED ON STRAIGHT OUT.
65 ft. trees, 63 ft. right of centerline

Airport Ownership and Management from official FAA records

Ownership: Privately-owned
Owner: ROBERT J. GAVAGAN
13989 FULTON ROAD
LYNN, MI 48097
Phone 586-776-6038
Manager: ROBERT J. GAVAGAN
13989 FULTON RD
LYNN, MI 48097
Phone 586-776-6038.

Airport Operational Statistics

Aircraft based on the field: 1
Single engine airplanes: 1
    
Aircraft operations: 100/year *
50% transient general aviation
50% local general aviation
* for 12-month period ending 31 December 2017

Additional Remarks

NO SNOW REMOVAL.
RY 14/32 HAS 2 FT DITCH ADJ TO RY BOTH SIDES.
FOR CD CTC SELFRIDGE APCH AT 586-239-5706, WHEN APCH CLSD CTC CLEVELAND ARTCC AT 440-774-0224, IF UNA CTC 440-774-0490.

Instrument Procedures

There are no published instrument procedures at 48G.

Some nearby airports with instrument procedures:

77G - Marlette Township Airport (15 nm NW)
D95 - Dupont-Lapeer Airport (17 nm W)
D98 - Romeo State Airport (19 nm S)
KPHN - St Clair County International Airport (20 nm SE)
57D - Ray Community Airport (22 nm S)
 
Loc | Ops | Rwys | IFR | FBO | Links
Com | Nav | Svcs | Stats | Notes
Area around 48G (Gavagan Field Airport)
 
Road maps at: MapQuest Bing Google
 
Aerial photo
WARNING: Photo may not be current or correct
Aerial photo of 48G (Gavagan Field Airport)
Do you have a better or more recent aerial photo of Gavagan Field Airport that you would like to share? If so, please send us your photo.

 
Sectional chart

 
Airport distance calculator
Flying to Gavagan Field Airport? Find the distance to fly.

From to 48G

Sunrise and sunset
Times for 08-May-2021
 Local
(UTC-4)
 Zulu
(UTC)
Morning civil twilight05:4509:45
Sunrise06:1710:17
Sunset20:3900:39
Evening civil twilight21:1101:11

Current date and time
Zulu (UTC)  08-May-2021 14:22:38
Local (UTC-4)  08-May-2021 10:22:38
 
METAR
KD95 
17nm W 
081355Z AUTO 33008G14KT 10SM SCT015 06/02 A3005 RMK AO2 T00550019
KPHN 
20nm SE 
081355Z AUTO 31007G14KT 280V340 10SM OVC026 06/M00 A3004 RMK AO2
CYZR 
26nm E 
081300Z AUTO 33014G20KT 9SM OVC016 05/03 A3001 RMK SLP168
KMTC 
29nm S 
081356Z 31009KT 10SM BKN020 BKN030 06/04 A3003 RMK AO2A SLP178 T00620042 $
KCFS 
32nm NW 
081355Z AUTO 30006KT 10SM OVC016 06/00 A3005 RMK AO2 T00570000
TAF
CYZR 
26nm E 
080922Z 0809/0820 35012G22KT P6SM SCT008 OVC025 TEMPO 0809/0813 4SM -RA -DZ BR BKN008 OVC015 FM081300 33012G22KT P6SM BKN025 TEMPO 0813/0817 BKN015 BECMG 0813/0815 34012KT FM081800 03010KT P6SM BKN040 RMK FCST BASED ON AUTO OBS. NXT FCST BY 081400Z
KMTC 
29nm S 
081158Z 0811/0915 34012KT 9999 SCT019 OVC020 QNH2993INS BECMG 0812/0814 34012G18KT 9999 BKN019 OVC025 QNH3001INS BECMG 0817/0818 32006KT 9999 BKN025 OVC040 QNH3001INS BECMG 0900/0901 VRB06KT 9999 BKN055 OVC100 QNH3003INS BECMG 0904/0905 11006KT 9999 SCT050 BKN150 QNH2999INS TX11/0821Z TN03/0908Z
NOTAMs
Click for the latest NOTAMs
NOTAMs are issued by the DoD/FAA and will open in a separate window not controlled by AirNav.

 

 
 

Would you like to see your business listed on this page?

 If your business provides an interesting product or service to pilots, flight crews, aircraft, or users of the Gavagan Field Airport, you should consider listing it here.  To start the listing process, click on the button below
 
Add a business
 

Other Pages about Gavagan Field Airport

Page from the Michigan Airport Directory (PDF)
 
Update a link
 
Copyright © AirNav, LLC. All rights reserved. Privacy Policy  Contact